Monroe, MI

7:24 PM EDT on August 29, 2016 (GMT -0400)
Custer

Weather History for KTTF - October, 2010

Change the Weather History Date:

Sunday, October 3, 2010

  Actual Average Record
Temperature  
Mean Temperature 50 °F -  
Max Temperature 55 °F 67 °F 88 °F (1951)
Min Temperature 44 °F 46 °F 28 °F (1974)
Degree Days  
Heating Degree Days 16    
Moisture  
Dew Point 41 °F    
Average Humidity 76    
Maximum Humidity 93    
Minimum Humidity 54    
Precipitation  
Precipitation 0.00 in - - ()
Sea Level Pressure  
Sea Level Pressure 30.21 in    
Wind  
Wind Speed 10 mph (North)    
Max Wind Speed 16 mph    
Max Gust Speed 25 mph    
Visibility 10 miles    
Events      
Averages and records for this station are not official NWS values.
T = Trace of Precipitation, MM = Missing Value Source: NWS Daily Summary

Daily Weather History Graph

Daily Weather History Graph

Search for Another Location

Airport or City:

Trip Planner

Search our weather history database for the weather conditions in past years. The results will help you decide how hot, cold, wet, or windy it might be!

Date:

Astronomy

Oct. 03, 2010 Rise Set
Actual Time 7:32 AM EDT 7:11 PM EDT
Civil Twilight 7:04 AM EDT 7:39 PM EDT
Nautical Twilight 6:32 AM EDT 8:12 PM EDT
Astronomical Twilight 5:59 AM EDT 8:44 PM EDT
Moon 2:22 AM EDT (10/3) 4:40 PM EDT (10/3)
Length of Visible Light 12h 34m
Length of Day
11h 39m
Waning Crescent, 23% of the Moon is Illuminated
Oct 3
Waning Crescent
Oct 7
New
Oct 14
First Quarter
Oct 22
Full
Oct 30
Last Quarter

Hourly Weather History & Observations

Time (EDT) Temp. Windchill Dew Point Humidity Pressure Visibility Wind Dir Wind Speed Gust Speed Precip Events Conditions
12:14 AM 46.4 °F 41.1 °F 44.6 °F 93% 30.14 in 10.0 mi North 11.5 mph 18.4 mph N/A   Light Drizzle
12:34 AM 46.4 °F 40.7 °F 44.6 °F 93% 30.14 in 10.0 mi North 12.7 mph 18.4 mph N/A   Overcast
12:53 AM 46.4 °F 41.5 °F 44.6 °F 93% 30.14 in 10.0 mi North 10.4 mph 20.7 mph N/A   Overcast
1:14 AM 46.4 °F 40.7 °F 44.6 °F 93% 30.14 in 10.0 mi North 12.7 mph 18.4 mph N/A   Overcast
1:33 AM 46.4 °F 41.5 °F 42.8 °F 87% 30.14 in 10.0 mi North 10.4 mph - N/A   Overcast
1:54 AM 46.4 °F 41.9 °F 42.8 °F 87% 30.15 in 10.0 mi North 9.2 mph 18.4 mph N/A   Overcast
2:13 AM 46.4 °F 41.5 °F 42.8 °F 87% 30.15 in 10.0 mi North 10.4 mph - N/A   Overcast
2:34 AM 46.4 °F 42.4 °F 42.8 °F 87% 30.15 in 10.0 mi North 8.1 mph - N/A   Overcast
2:53 AM 46.4 °F 41.5 °F 42.8 °F 87% 30.15 in 10.0 mi North 10.4 mph - N/A   Overcast
3:13 AM 46.4 °F 41.9 °F 42.8 °F 87% 30.15 in 10.0 mi North 9.2 mph - N/A   Scattered Clouds
3:34 AM 44.6 °F 40.7 °F 42.8 °F 93% 30.15 in 10.0 mi North 6.9 mph - N/A   Scattered Clouds
3:53 AM 44.6 °F 40.7 °F 42.8 °F 93% 30.15 in 10.0 mi North 6.9 mph - N/A   Clear
4:13 AM 44.6 °F 42.2 °F 42.8 °F 93% 30.16 in 10.0 mi North 4.6 mph - N/A   Scattered Clouds
4:33 AM 44.6 °F 41.4 °F 42.8 °F 93% 30.16 in 10.0 mi NNW 5.8 mph - N/A   Scattered Clouds
4:54 AM 44.6 °F 41.4 °F 41.0 °F 87% 30.17 in 10.0 mi NNW 5.8 mph - N/A   Scattered Clouds
5:13 AM 44.6 °F 40.2 °F 41.0 °F 87% 30.17 in 10.0 mi North 8.1 mph - N/A   Mostly Cloudy
5:34 AM 44.6 °F 41.4 °F 41.0 °F 87% 30.17 in 10.0 mi NNW 5.8 mph - N/A   Overcast
5:54 AM 44.6 °F 40.7 °F 41.0 °F 87% 30.18 in 10.0 mi NNW 6.9 mph - N/A   Overcast
6:13 AM 44.6 °F 40.2 °F 41.0 °F 87% 30.18 in 10.0 mi NNW 8.1 mph - N/A   Overcast
6:33 AM 44.6 °F 39.7 °F 42.8 °F 93% 30.18 in 10.0 mi North 9.2 mph - N/A   Overcast
6:53 AM 44.6 °F 40.7 °F 42.8 °F 93% 30.19 in 10.0 mi North 6.9 mph - N/A   Mostly Cloudy
7:13 AM 44.6 °F 39.7 °F 42.8 °F 93% 30.19 in 10.0 mi NNW 9.2 mph - N/A   Scattered Clouds
7:40 AM 44.6 °F 40.2 °F 42.8 °F 93% 30.20 in 10.0 mi North 8.1 mph - N/A   Clear
7:54 AM 44.6 °F 38.8 °F 42.8 °F 93% 30.20 in 10.0 mi North 11.5 mph - N/A   Scattered Clouds
8:13 AM 44.6 °F 38.8 °F 42.8 °F 93% 30.21 in 10.0 mi North 11.5 mph - N/A   Scattered Clouds
8:33 AM 44.6 °F 39.7 °F 42.8 °F 93% 30.22 in 10.0 mi North 9.2 mph - N/A   Clear
8:53 AM 44.6 °F 40.2 °F 42.8 °F 93% 30.23 in 10.0 mi North 8.1 mph - N/A   Clear
9:13 AM 44.6 °F 39.2 °F 42.8 °F 93% 30.24 in 10.0 mi North 10.4 mph - N/A   Clear
9:33 AM 46.4 °F 42.4 °F 42.8 °F 87% 30.24 in 10.0 mi North 8.1 mph - N/A   Clear
9:54 AM 48.2 °F - 42.8 °F 82% 30.24 in 10.0 mi North 10.4 mph 17.3 mph N/A   Clear
10:14 AM 50.0 °F - 41.0 °F 71% 30.25 in 10.0 mi NNE 12.7 mph 25.3 mph N/A   Clear
10:33 AM 51.8 °F - 41.0 °F 67% 30.25 in 10.0 mi NNE 11.5 mph 24.2 mph N/A   Scattered Clouds
10:54 AM 50.0 °F - 39.2 °F 66% 30.25 in 10.0 mi North 10.4 mph 19.6 mph N/A   Mostly Cloudy
11:13 AM 51.8 °F - 37.4 °F 58% 30.26 in 10.0 mi NE 16.1 mph 23.0 mph N/A   Mostly Cloudy
11:34 AM 55.4 °F - 39.2 °F 54% 30.26 in 10.0 mi NE 12.7 mph 21.9 mph N/A   Overcast
11:53 AM 51.8 °F - 37.4 °F 58% 30.26 in 10.0 mi NNE 12.7 mph 24.2 mph N/A   Overcast
12:13 PM 53.6 °F - 37.4 °F 54% 30.26 in 10.0 mi NNE 11.5 mph 20.7 mph N/A   Mostly Cloudy
12:33 PM 53.6 °F - 37.4 °F 54% 30.26 in 10.0 mi NE 10.4 mph 18.4 mph N/A   Mostly Cloudy
12:54 PM 53.6 °F - 37.4 °F 54% 30.26 in 10.0 mi North 13.8 mph 24.2 mph N/A   Mostly Cloudy
1:13 PM 53.6 °F - 37.4 °F 54% 30.27 in 10.0 mi NNE 15.0 mph 24.2 mph N/A   Overcast
1:33 PM 53.6 °F - 37.4 °F 54% 30.27 in 10.0 mi North 16.1 mph 21.9 mph N/A   Overcast
1:54 PM 53.6 °F - 37.4 °F 54% 30.26 in 10.0 mi NNE 10.4 mph 19.6 mph N/A   Overcast
2:13 PM 53.6 °F - 37.4 °F 54% 30.26 in 10.0 mi North 12.7 mph 17.3 mph N/A   Overcast
2:34 PM 53.6 °F - 37.4 °F 54% 30.25 in 10.0 mi NNE 12.7 mph 23.0 mph N/A   Overcast
2:53 PM 53.6 °F - 37.4 °F 54% 30.25 in 10.0 mi NNE 13.8 mph 17.3 mph N/A   Overcast
3:13 PM 51.8 °F - 37.4 °F 58% 30.25 in 10.0 mi NNE 8.1 mph 20.7 mph N/A   Mostly Cloudy
3:33 PM 53.6 °F - 37.4 °F 54% 30.25 in 10.0 mi NE 11.5 mph 19.6 mph N/A   Scattered Clouds
3:53 PM 53.6 °F - 37.4 °F 54% 30.24 in 10.0 mi NE 9.2 mph 18.4 mph N/A   Scattered Clouds
4:14 PM 53.6 °F - 41.0 °F 62% 30.25 in 10.0 mi NE 9.2 mph 12.7 mph N/A   Mostly Cloudy
4:33 PM 53.6 °F - 41.0 °F 62% 30.25 in 10.0 mi ENE 10.4 mph 17.3 mph N/A   Mostly Cloudy
4:54 PM 53.6 °F - 39.2 °F 58% 30.25 in 10.0 mi NE 10.4 mph 17.3 mph N/A   Overcast
5:13 PM 53.6 °F - 37.4 °F 54% 30.25 in 10.0 mi NNE 10.4 mph - N/A   Overcast
5:33 PM 53.6 °F - 37.4 °F 54% 30.26 in 10.0 mi NE 10.4 mph - N/A   Scattered Clouds
5:53 PM 51.8 °F - 37.4 °F 58% 30.26 in 10.0 mi NE 5.8 mph - N/A   Scattered Clouds
6:14 PM 51.8 °F - 37.4 °F 58% 30.26 in 10.0 mi North 5.8 mph - N/A   Scattered Clouds
6:33 PM 51.8 °F - 35.6 °F 54% 30.27 in 10.0 mi NNE 10.4 mph 17.3 mph N/A   Mostly Cloudy
6:54 PM 51.8 °F - 35.6 °F 54% 30.27 in 10.0 mi NNE 6.9 mph - N/A   Mostly Cloudy
7:14 PM 51.8 °F - 35.6 °F 54% 30.27 in 10.0 mi North 6.9 mph - N/A   Mostly Cloudy
7:33 PM 51.8 °F - 37.4 °F 58% 30.27 in 10.0 mi NNE 5.8 mph - N/A   Mostly Cloudy
7:54 PM 50.0 °F - 37.4 °F 62% 30.28 in 10.0 mi North 6.9 mph - N/A   Overcast
8:13 PM 50.0 °F - 37.4 °F 62% 30.28 in 10.0 mi North 6.9 mph - N/A   Mostly Cloudy
8:33 PM 50.0 °F - 37.4 °F 62% 30.28 in 10.0 mi North 4.6 mph - N/A   Overcast
8:53 PM 48.2 °F - 37.4 °F 66% 30.29 in 10.0 mi North 6.9 mph - N/A   Overcast
9:14 PM 48.2 °F - 39.2 °F 71% 30.29 in 10.0 mi North 6.9 mph - N/A   Overcast
9:34 PM 48.2 °F - 39.2 °F 71% 30.29 in 10.0 mi North 6.9 mph - N/A   Mostly Cloudy
9:53 PM 48.2 °F - 39.2 °F 71% 30.30 in 10.0 mi NNE 4.6 mph - N/A   Scattered Clouds
10:14 PM 48.2 °F - 39.2 °F 71% 30.30 in 10.0 mi North 5.8 mph - N/A   Mostly Cloudy
10:33 PM 48.2 °F - 39.2 °F 71% 30.30 in 10.0 mi North 6.9 mph - N/A   Overcast
10:54 PM 48.2 °F - 39.2 °F 71% 30.30 in 10.0 mi North 9.2 mph - N/A   Overcast
11:13 PM 48.2 °F - 39.2 °F 71% 30.30 in 10.0 mi North 9.2 mph - N/A   Overcast
11:34 PM 48.2 °F - 39.2 °F 71% 30.30 in 10.0 mi North 6.9 mph - N/A   Overcast
11:54 PM 46.4 °F 42.9 °F 39.2 °F 76% 30.30 in 10.0 mi North 6.9 mph - N/A   Mostly Cloudy